Edinburg, TX

8:09 PM CST on January 16, 2017 (GMT -0600)
Edinburg

Weather History for KEBG - November, 2011

Change the Weather History Date:

Tuesday, November 15, 2011

  Actual Average (KMFE) Record (KMFE)
Temperature  
Mean Temperature 76 °F -  
Max Temperature 89 °F 76 °F 93 °F (2005)
Min Temperature 63 °F 57 °F 39 °F (1976)
Cooling Degree Days 11    
Growing Degree Days 26 (Base 50)    
Moisture  
Dew Point 55 °F    
Average Humidity 53    
Maximum Humidity 83    
Minimum Humidity 18    
Precipitation  
Precipitation 0.03 in - - ()
Sea Level Pressure  
Sea Level Pressure 29.77 in    
Wind  
Wind Speed 11 mph (WNW)    
Max Wind Speed 23 mph    
Max Gust Speed 36 mph    
Visibility 10 miles    
Events Rain    
Averages and records for this station are not official NWS values.
T = Trace of Precipitation, MM = Missing Value Source: NWS Daily Summary

Daily Weather History Graph

Daily Weather History Graph

Search for Another Location

Airport or City:

Trip Planner

Search our weather history database for the weather conditions in past years. The results will help you decide how hot, cold, wet, or windy it might be!

Date:

Astronomy

Nov. 15, 2011 Rise Set
Actual Time 6:51 AM CST 5:42 PM CST
Civil Twilight 6:26 AM CST 6:07 PM CST
Nautical Twilight 5:58 AM CST 6:34 PM CST
Astronomical Twilight 5:31 AM CST 7:02 PM CST
Moon 9:54 PM CST (11/15) 10:48 AM CST (11/15)
Length of Visible Light 11h 40m
Length of Day
10h 51m
Waning Gibbous, 79% of the Moon is Illuminated
Nov 15
Waning Gibbous
Nov 18
Last Quarter
Nov 25
New
Dec 2
First Quarter
Dec 10
Full

Hourly Weather History & Observations

Time (CST) Temp. Heat Index Dew Point Humidity Pressure Visibility Wind Dir Wind Speed Gust Speed Precip Events Conditions
12:15 AM 77.7 °F - 70.2 °F 77% 29.73 in 10.0 mi SSE 18.4 mph 23.0 mph N/A   Scattered Clouds
12:35 AM 77.0 °F - 70.0 °F 79% 29.73 in 10.0 mi South 16.1 mph 19.6 mph N/A   Clear
12:55 AM 76.8 °F - 69.6 °F 78% 29.73 in 10.0 mi SSE 10.4 mph 20.7 mph N/A   Clear
1:35 AM 76.1 °F - 69.3 °F 79% 29.74 in 10.0 mi SSE 5.8 mph - N/A   Scattered Clouds
3:15 AM 75.2 °F - 69.6 °F 83% 29.71 in 7.0 mi SSE 8.1 mph - N/A   Scattered Clouds
3:35 AM 75.4 °F - 69.8 °F 83% 29.69 in 7.0 mi SSE 12.7 mph - N/A   Clear
3:55 AM 75.6 °F - 69.8 °F 82% 29.69 in 10.0 mi South 11.5 mph - N/A   Clear
4:15 AM 75.7 °F - 69.4 °F 81% 29.70 in 10.0 mi South 6.9 mph - N/A   Scattered Clouds
4:35 AM 75.9 °F - 69.6 °F 81% 29.70 in 10.0 mi South 5.8 mph - N/A   Mostly Cloudy
4:55 AM 76.1 °F - 69.8 °F 81% 29.71 in 10.0 mi South 6.9 mph - N/A   Overcast
5:15 AM 76.3 °F - 70.0 °F 81% 29.72 in 10.0 mi South 8.1 mph - N/A   Mostly Cloudy
5:35 AM 75.7 °F - 69.8 °F 82% 29.70 in 7.0 mi South 9.2 mph - N/A   Scattered Clouds
5:55 AM 75.4 °F - 69.8 °F 83% 29.68 in 7.0 mi SSE 13.8 mph - N/A   Scattered Clouds
7:35 AM 76.1 °F - 69.4 °F 80% 29.78 in 7.0 mi SW 8.1 mph - N/A   Scattered Clouds
7:55 AM 76.6 °F - 69.6 °F 79% 29.82 in 7.0 mi NW 23.0 mph 35.7 mph N/A   Mostly Cloudy
8:15 AM 70.3 °F - 61.2 °F 73% 29.82 in 5.0 mi North 16.1 mph - 0.03 in Rain Heavy Rain
8:55 AM 66.6 °F - 60.4 °F 81% 29.83 in 10.0 mi North 8.1 mph - 0.03 in   Overcast
9:15 AM 68.5 °F - 60.4 °F 75% 29.83 in 10.0 mi North 8.1 mph - N/A   Mostly Cloudy
9:35 AM 70.0 °F - 59.9 °F 70% 29.84 in 10.0 mi North 8.1 mph - N/A   Mostly Cloudy
9:55 AM 72.1 °F - 59.5 °F 64% 29.83 in 10.0 mi North 9.2 mph - N/A   Overcast
10:15 AM 74.1 °F - 59.4 °F 60% 29.84 in 10.0 mi North 11.5 mph - N/A   Mostly Cloudy
10:35 AM 76.3 °F - 57.7 °F 53% 29.83 in 10.0 mi North 11.5 mph - N/A   Scattered Clouds
10:55 AM 78.4 °F - 57.6 °F 49% 29.83 in 10.0 mi North 11.5 mph 16.1 mph N/A   Mostly Cloudy
11:15 AM 79.9 °F - 55.8 °F 43% 29.82 in 10.0 mi NNW 9.2 mph - N/A   Mostly Cloudy
11:35 AM 80.4 °F 80.2 °F 54.1 °F 40% 29.82 in 10.0 mi NW 11.5 mph - N/A   Scattered Clouds
11:55 AM 82.9 °F - 51.3 °F 33% 29.81 in 10.0 mi NW 15.0 mph - N/A   Clear
12:15 PM 84.0 °F - 51.1 °F 32% 29.80 in 10.0 mi NNW 18.4 mph 24.2 mph N/A   Clear
12:35 PM 85.3 °F - 49.1 °F 28% 29.79 in 10.0 mi NW 16.1 mph 24.2 mph N/A   Clear
12:55 PM 86.2 °F - 47.5 °F 26% 29.77 in 10.0 mi NW 12.7 mph 24.2 mph N/A   Clear
1:15 PM 87.3 °F - 46.0 °F 24% 29.76 in 10.0 mi NW 13.8 mph 26.5 mph N/A   Clear
1:35 PM 87.3 °F - 45.7 °F 23% 29.76 in 10.0 mi WNW 13.8 mph 19.6 mph N/A   Clear
2:15 PM 87.8 °F - 47.5 °F 25% 29.74 in 10.0 mi NW 15.0 mph 18.4 mph N/A   Clear
2:35 PM 88.2 °F - 46.2 °F 23% 29.73 in 10.0 mi WNW 17.3 mph 27.6 mph N/A   Clear
3:15 PM 88.3 °F - 46.8 °F 24% 29.72 in 10.0 mi NW 10.4 mph 19.6 mph N/A   Clear
3:35 PM 88.7 °F - 45.7 °F 22% 29.72 in 10.0 mi NW 15.0 mph 19.6 mph N/A   Clear
4:15 PM 89.2 °F - 40.8 °F 18% 29.73 in 10.0 mi WNW 13.8 mph 21.9 mph N/A   Clear
4:35 PM 88.9 °F - 41.5 °F 19% 29.73 in 10.0 mi NW 13.8 mph - N/A   Clear
5:15 PM 86.9 °F - 43.2 °F 22% 29.74 in 10.0 mi NNW 8.1 mph - N/A   Clear
5:35 PM 85.5 °F - 43.9 °F 23% 29.74 in 10.0 mi NNW 6.9 mph - N/A   Clear
5:55 PM 82.0 °F - 45.1 °F 27% 29.75 in 10.0 mi NNW 4.6 mph - N/A   Clear
6:15 PM 80.1 °F - 45.7 °F 30% 29.76 in 10.0 mi North 5.8 mph - N/A   Clear
6:35 PM 77.9 °F - 46.6 °F 33% 29.77 in 10.0 mi North 6.9 mph - N/A   Clear
6:55 PM 74.7 °F - 49.6 °F 41% 29.77 in 10.0 mi North 5.8 mph - N/A   Clear
7:15 PM 75.2 °F - 48.7 °F 39% 29.78 in 10.0 mi North 8.1 mph - N/A   Clear
7:35 PM 73.6 °F - 48.4 °F 41% 29.79 in 10.0 mi Calm Calm - N/A   Clear
7:55 PM 72.5 °F - 48.2 °F 42% 29.80 in 10.0 mi Calm Calm - N/A   Clear
8:15 PM 68.7 °F - 48.7 °F 49% 29.81 in 10.0 mi SE 3.5 mph - N/A   Clear
8:35 PM 66.9 °F - 49.1 °F 53% 29.82 in 10.0 mi Calm Calm - N/A   Clear
8:55 PM 67.3 °F - 48.6 °F 51% 29.82 in 10.0 mi SSE 4.6 mph - N/A   Clear
9:15 PM 65.5 °F - 48.7 °F 55% 29.82 in 10.0 mi Calm Calm - N/A   Clear
9:35 PM 65.8 °F - 49.3 °F 55% 29.83 in 10.0 mi Calm Calm - N/A   Clear
9:55 PM 64.9 °F - 48.6 °F 55% 29.83 in 10.0 mi SSE 3.5 mph - N/A   Clear
10:15 PM 63.5 °F - 48.7 °F 59% 29.83 in 10.0 mi Calm Calm - N/A   Clear
10:55 PM 64.0 °F - 48.4 °F 57% 29.83 in 10.0 mi Calm Calm - N/A   Clear
11:15 PM 63.0 °F - 48.4 °F 59% 29.83 in 10.0 mi South 4.6 mph - N/A   Clear
11:35 PM 64.8 °F - 49.5 °F 58% 29.83 in 10.0 mi SSW 8.1 mph - N/A   Clear
11:55 PM 68.0 °F - 52.9 °F 58% 29.83 in 10.0 mi SSW 6.9 mph - N/A   Clear